�������l�o���
Date,Time,MP-1(��Sv/h),MP-2(��Sv/h),MP-3(��Sv/h),MP-4(��Sv/h),MP-5(��Sv/h),MP-6(��Sv/h),MP-7(��Sv/h),MP-8(��Sv/h),����,����(m/s),���J
2017/01/13,00:00,1.081,1.792,1.171,2.031,1.406,0.561,1.028,0.954,�쐼,4.5,��
2017/01/13,00:10,1.083,1.793,1.172,2.030,1.406,0.562,1.026,0.954,�쐼,6.6,�L
2017/01/13,00:20,1.085,1.793,1.171,2.028,1.406,0.565,1.027,0.954,�쐼,6.5,�L
2017/01/13,00:30,1.084,1.791,1.175,2.031,1.407,0.562,1.029,0.953,���쐼,8.5,�L
2017/01/13,00:40,1.085,1.796,1.175,2.030,1.407,0.565,1.027,0.953,���쐼,8.8,��
2017/01/13,00:50,1.084,1.795,1.173,2.029,1.408,0.565,1.028,0.955,�쐼,6.7,�L
2017/01/13,01:00,1.084,1.793,1.174,2.031,1.408,0.564,1.028,0.954,���쐼,6.8,�L
2017/01/13,01:10,1.085,1.796,1.175,2.031,1.403,0.567,1.027,0.954,���쐼,7.5,�L
2017/01/13,01:20,1.086,1.796,1.174,2.030,1.405,0.568,1.028,0.956,�쐼,7.1,�L
2017/01/13,01:30,1.085,1.793,1.175,2.032,1.406,0.566,1.028,0.954,�쐼,7.4,��
2017/01/13,01:40,1.081,1.791,1.172,2.032,1.407,0.566,1.028,0.954,�쐼,8.1,��
2017/01/13,01:50,1.083,1.788,1.172,2.031,1.405,0.564,1.027,0.956,���쐼,7.3,��
2017/01/13,02:00,1.082,1.792,1.171,2.029,1.402,0.564,1.026,0.954,��,7.0,��
2017/01/13,02:10,1.079,1.791,1.171,2.026,1.401,0.566,1.028,0.955,��,7.3,��
2017/01/13,02:20,1.080,1.789,1.170,2.028,1.399,0.565,1.028,0.954,��,7.5,��
2017/01/13,02:30,1.078,1.788,1.167,2.025,1.401,0.564,1.027,0.954,���k��,7.8,��
2017/01/13,02:40,1.076,1.788,1.168,2.025,1.400,0.562,1.025,0.956,�k��,6.5,��
2017/01/13,02:50,1.077,1.786,1.168,2.025,1.403,0.560,1.028,0.952,�k��,8.8,��
2017/01/13,03:00,1.078,1.784,1.169,2.023,1.401,0.562,1.025,0.951,�k�k��,6.5,��
2017/01/13,03:10,1.076,1.786,1.165,2.023,1.401,0.562,1.025,0.954,�k�k��,7.1,��
2017/01/13,03:20,1.078,1.787,1.166,2.023,1.399,0.560,1.025,0.953,�k�k��,7.9,��
2017/01/13,03:30,1.077,1.783,1.164,2.021,1.398,0.559,1.026,0.951,�k�k��,7.0,��
2017/01/13,03:40,1.076,1.786,1.163,2.023,1.399,0.560,1.026,0.954,�k�k��,8.3,��
2017/01/13,03:50,1.077,1.783,1.162,2.021,1.400,0.559,1.024,0.953,�k�k��,7.5,��
2017/01/13,04:00,1.076,1.784,1.164,2.025,1.396,0.560,1.026,0.953,�k�k��,7.1,��
2017/01/13,04:10,1.076,1.787,1.165,2.023,1.398,0.559,1.025,0.952,�k�k��,7.8,��
2017/01/13,04:20,1.078,1.787,1.166,2.023,1.399,0.560,1.024,0.951,�k,7.3,��
2017/01/13,04:30,1.075,1.786,1.165,2.020,1.398,0.558,1.024,0.953,�k�k��,7.4,��
2017/01/13,04:40,1.076,1.786,1.165,2.022,1.397,0.558,1.024,0.954,�k,7.4,��
2017/01/13,04:50,1.076,1.786,1.165,2.022,1.396,0.558,1.026,0.953,�k,6.0,��
2017/01/13,05:00,1.075,1.786,1.165,2.024,1.399,0.560,1.025,0.953,�k,5.9,��
2017/01/13,05:10,1.075,1.781,1.163,2.025,1.397,0.558,1.025,0.952,�k,6.7,��
2017/01/13,05:20,1.075,1.782,1.164,2.023,1.396,0.558,1.026,0.952,�k,4.7,��
2017/01/13,05:30,1.074,1.781,1.164,2.023,1.396,0.558,1.025,0.951,�k,4.5,��
2017/01/13,05:40,1.075,1.781,1.167,2.024,1.396,0.558,1.025,0.952,�k�k��,5.1,��
2017/01/13,05:50,1.072,1.783,1.166,2.024,1.393,0.558,1.023,0.952,�k�k��,5.7,��
2017/01/13,06:00,1.075,1.783,1.163,2.022,1.397,0.556,1.026,0.952,�k,6.0,��
2017/01/13,06:10,1.073,1.785,1.164,2.024,1.396,0.557,1.025,0.952,�k,7.2,��
2017/01/13,06:20,1.074,1.782,1.164,2.026,1.395,0.557,1.024,0.950,�k,7.7,��
2017/01/13,06:30,1.074,1.785,1.166,2.024,1.395,0.558,1.025,0.952,�k,8.4,��
2017/01/13,06:40,1.074,1.784,1.163,2.022,1.395,0.558,1.025,0.949,�k,7.8,��
2017/01/13,06:50,1.072,1.781,1.164,2.023,1.394,0.557,1.024,0.949,�k,7.3,��
2017/01/13,07:00,1.073,1.782,1.164,2.022,1.396,0.559,1.025,0.952,�k,7.6,��
2017/01/13,07:10,1.073,1.783,1.164,2.020,1.395,0.558,1.024,0.951,�k,8.2,��
2017/01/13,07:20,1.073,1.782,1.164,2.023,1.396,0.558,1.025,0.950,�k,7.7,��
2017/01/13,07:30,1.071,1.781,1.163,2.022,1.395,0.559,1.024,0.949,�k�k��,7.5,��
2017/01/13,07:40,1.073,1.781,1.163,2.022,1.394,0.557,1.023,0.950,�k,7.7,��
2017/01/13,07:50,1.073,1.780,1.164,2.023,1.395,0.557,1.025,0.951,�k,7.1,��
2017/01/13,08:00,1.073,1.780,1.165,2.021,1.396,0.559,1.023,0.951,�k,7.2,��
2017/01/13,08:10,1.073,1.780,1.166,2.026,1.393,0.559,1.026,0.952,�k,6.9,��
2017/01/13,08:20,1.072,1.784,1.164,2.025,1.393,0.559,1.025,0.952,�k,7.3,��
2017/01/13,08:30,1.073,1.782,1.170,2.023,1.395,0.558,1.026,0.951,�k,7.0,��
2017/01/13,08:40,1.073,1.780,1.167,2.024,1.396,0.558,1.026,0.950,�k,6.8,��
2017/01/13,08:50,1.074,1.784,1.167,2.024,1.396,0.556,1.025,0.952,�k,6.8,��
2017/01/13,09:00,1.075,1.783,1.166,2.024,1.397,0.557,1.024,0.951,�k�k��,6.9,��
2017/01/13,09:10,1.077,1.783,1.168,2.023,1.396,0.557,1.026,0.953,�k�k��,6.0,��
2017/01/13,09:20,1.077,1.779,1.169,2.025,1.399,0.560,1.024,0.951,�k�k��,5.3,��
2017/01/13,09:30,1.076,1.785,1.170,2.023,1.400,0.560,1.026,0.953,�k,4.4,��
2017/01/13,09:40,1.078,1.785,1.169,2.024,1.399,0.559,1.027,0.952,�k,6.4,��
2017/01/13,09:50,1.077,1.784,1.168,2.025,1.396,0.559,1.025,0.951,�k,6.6,��
2017/01/13,10:00,1.077,1.790,1.170,2.026,1.398,0.559,1.027,0.952,�k,7.3,��
2017/01/13,10:10,1.077,1.789,1.170,2.025,1.402,0.559,1.024,0.953,�k,6.4,��
2017/01/13,10:20,1.078,1.784,1.174,2.025,1.400,0.558,1.024,0.952,�k,6.7,��
2017/01/13,10:30,1.080,1.782,1.173,2.026,1.400,0.558,1.022,0.953,�k�k��,6.9,��
2017/01/13,10:40,1.077,1.784,1.172,2.029,1.404,0.558,1.024,0.951,�k,6.7,��
2017/01/13,10:50,1.068,1.784,1.171,2.025,1.403,-,1.023,0.954,�k�k��,5.2,��
2017/01/13,11:00,1.078,1.783,1.170,2.027,1.400,-,1.024,0.954,�k,7.1,��
2017/01/13,11:10,1.081,1.768,1.171,2.026,1.401,-,1.024,0.953,�k,7.9,��
2017/01/13,11:20,1.082,1.777,1.173,2.027,1.406,-,1.026,0.954,�k,7.6,��
2017/01/13,11:30,1.081,1.791,1.164,2.028,1.404,-,1.026,0.953,�k,7.3,��
2017/01/13,11:40,1.082,1.785,1.164,2.028,1.404,-,1.026,0.955,�k,6.6,��
2017/01/13,11:50,1.081,1.792,1.169,2.028,1.402,-,1.026,0.952,�k�k��,7.0,��
2017/01/13,12:00,1.081,1.788,1.173,2.030,1.407,-,1.024,0.954,�k,7.4,��
2017/01/13,12:10,1.081,1.787,1.173,2.028,1.406,-,1.025,0.954,�k,7.5,��
2017/01/13,12:20,1.083,1.790,1.171,2.029,1.408,-,1.023,0.955,�k,6.6,��
2017/01/13,12:30,1.083,1.789,1.172,2.029,1.406,-,1.025,0.953,�k,6.8,��
2017/01/13,12:40,1.081,1.789,1.175,2.030,1.408,-,1.025,0.952,�k,7.4,��
2017/01/13,12:50,1.081,1.788,1.172,2.029,1.405,-,1.027,0.954,�k,6.0,��
2017/01/13,13:00,1.083,1.786,1.174,2.030,1.408,-,1.025,0.953,�k,6.7,��
2017/01/13,13:10,1.080,1.771,1.177,2.028,1.407,-,1.026,0.954,�k,5.7,��
2017/01/13,13:20,1.082,1.770,1.176,2.030,1.408,-,1.026,0.954,�k�k��,6.1,��
2017/01/13,13:30,1.080,1.787,1.174,2.029,1.410,-,1.026,0.954,�k,5.7,��
2017/01/13,13:40,1.084,1.791,1.175,2.031,1.409,-,1.027,0.953,�k�k��,5.8,��
2017/01/13,13:50,1.082,1.792,1.172,2.032,1.407,-,1.027,0.953,�k�k��,6.4,��
2017/01/13,14:00,1.081,1.790,1.175,2.029,1.408,-,1.027,0.953,�k�k��,4.6,��
2017/01/13,14:10,1.082,1.792,1.175,2.030,1.408,-,1.027,0.951,�k�k��,4.9,��
2017/01/13,14:20,1.081,1.794,1.174,2.034,1.408,-,1.030,0.954,�k,4.9,��
2017/01/13,14:30,1.081,1.789,1.177,2.030,1.407,-,1.028,0.954,�k,4.8,�L
2017/01/13,14:40,1.080,1.790,1.174,2.030,1.407,-,1.027,0.954,�k,4.7,��
2017/01/13,14:50,1.084,1.791,1.176,2.027,1.406,-,1.027,0.955,�k,5.1,��
2017/01/13,15:00,1.082,1.791,1.174,2.029,1.404,-,1.028,0.952,�k,3.4,��
2017/01/13,15:10,1.080,1.792,1.174,2.029,1.407,-,1.028,0.954,�k,4.7,��
2017/01/13,15:20,1.081,1.791,1.171,2.028,1.405,-,1.027,0.954,�k,5.4,��
2017/01/13,15:30,1.083,1.789,1.170,2.030,1.406,-,1.028,0.954,�k,5.5,��
2017/01/13,15:40,1.080,1.792,1.170,2.031,1.404,-,1.026,0.953,�k,5.0,��
2017/01/13,15:50,1.081,1.793,1.172,2.028,1.404,-,1.027,0.953,�k,4.5,��
2017/01/13,16:00,1.082,1.792,1.170,2.029,1.406,0.560,1.025,0.951,�k,6.0,��
2017/01/13,16:10,1.082,1.793,1.169,2.025,1.404,0.562,1.025,0.953,�k,5.0,��
2017/01/13,16:20,1.081,1.792,1.169,2.027,1.404,0.561,1.025,0.953,�k,4.6,��
2017/01/13,16:30,1.079,1.789,1.171,2.026,1.405,0.560,1.028,0.954,�k,6.0,��
2017/01/13,16:40,1.078,1.793,1.170,2.026,1.402,0.562,1.024,0.952,�k�k��,7.3,��
2017/01/13,16:50,1.078,1.791,1.171,2.030,1.405,0.561,1.026,0.951,�k,8.0,��
2017/01/13,17:00,1.079,1.793,1.168,2.026,1.403,0.559,1.026,0.952,�k,6.1,��
2017/01/13,17:10,1.078,1.790,1.168,2.030,1.405,0.559,1.026,0.951,�k,6.9,��
2017/01/13,17:20,1.077,1.788,1.170,2.026,1.403,0.561,1.028,0.951,�k,6.4,��
2017/01/13,17:30,1.079,1.790,1.164,2.026,1.402,0.559,1.026,0.952,�k,6.0,��
2017/01/13,17:40,1.078,1.789,1.169,2.026,1.402,0.560,1.026,0.952,�k�k��,6.2,��
2017/01/13,17:50,1.077,1.790,1.169,2.024,1.403,0.560,1.027,0.950,�k�k��,5.9,��
2017/01/13,18:00,1.077,1.790,1.166,2.023,1.402,0.561,1.025,0.951,�k�k��,5.8,��
2017/01/13,18:10,1.077,1.790,1.167,2.027,1.406,0.560,1.026,0.953,�k�k��,6.1,��
2017/01/13,18:20,1.077,1.790,1.169,2.026,1.401,0.560,1.026,0.952,�k�k��,5.6,��
2017/01/13,18:30,1.076,1.791,1.167,2.023,1.403,0.560,1.024,0.952,�k�k��,5.6,��
2017/01/13,18:40,1.078,1.790,1.168,2.024,1.403,0.558,1.026,0.952,�k�k��,5.2,��
2017/01/13,18:50,1.077,1.790,1.166,2.024,1.401,0.559,1.025,0.952,�k�k��,5.9,��
2017/01/13,19:00,1.076,1.789,1.165,2.025,1.403,0.560,1.023,0.951,�k�k��,6.3,��
2017/01/13,19:10,1.078,1.790,1.167,2.023,1.401,0.561,1.024,0.952,�k��,5.9,��
2017/01/13,19:20,1.076,1.792,1.168,2.025,1.401,0.560,1.025,0.950,�k��,4.9,��
2017/01/13,19:30,1.078,1.788,1.167,2.022,1.401,0.559,1.024,0.952,�k��,4.5,��
2017/01/13,19:40,1.076,1.791,1.168,2.026,1.400,0.559,1.024,0.952,�k��,4.3,��
2017/01/13,19:50,1.076,1.787,1.170,2.018,1.400,0.559,1.025,0.952,���k��,3.4,��
2017/01/13,20:00,1.076,1.786,1.167,2.025,1.403,0.559,1.024,0.952,�k��,4.1,��
2017/01/13,20:10,1.076,1.788,1.166,2.028,1.399,0.557,1.025,0.951,�k��,4.5,��
2017/01/13,20:20,1.075,1.789,1.166,2.025,1.403,0.558,1.024,0.951,�k��,4.4,��
2017/01/13,20:30,1.078,1.786,1.166,2.025,1.401,0.558,1.024,0.952,�k�k��,3.1,��
2017/01/13,20:40,1.076,1.789,1.167,2.024,1.402,0.559,1.027,0.950,�k�k��,4.6,��
2017/01/13,20:50,1.076,1.786,1.167,2.025,1.397,0.558,1.023,0.950,�k��,5.7,��
2017/01/13,21:00,1.077,1.790,1.167,2.024,1.401,0.560,1.025,0.952,�k�k��,6.2,��
2017/01/13,21:10,1.074,1.789,1.167,2.021,1.399,0.560,1.026,0.952,�k�k��,6.4,��
2017/01/13,21:20,1.076,1.787,1.166,2.026,1.398,0.558,1.025,0.950,�k�k��,6.6,��
2017/01/13,21:30,1.076,1.785,1.164,2.024,1.397,0.558,1.025,0.951,�k�k��,7.4,��
2017/01/13,21:40,1.077,1.789,1.166,2.027,1.398,0.558,1.025,0.952,�k�k��,7.7,��
2017/01/13,21:50,1.076,1.786,1.167,2.025,1.403,0.560,1.027,0.951,�k�k��,7.6,��
2017/01/13,22:00,1.075,1.786,1.166,2.026,1.401,0.558,1.025,0.953,�k�k��,8.2,��
2017/01/13,22:10,1.075,1.788,1.168,2.023,1.400,0.557,1.027,0.952,�k��,8.5,��
2017/01/13,22:20,1.073,1.787,1.166,2.025,1.400,0.559,1.027,0.954,�k�k��,9.1,��
2017/01/13,22:30,1.075,1.787,1.165,2.025,1.398,0.558,1.026,0.951,�k�k��,8.2,��
2017/01/13,22:40,1.075,1.788,1.168,2.024,1.399,0.557,1.027,0.952,�k�k��,8.0,��
2017/01/13,22:50,1.075,1.787,1.167,2.024,1.401,0.556,1.026,0.952,�k�k��,6.5,��
2017/01/13,23:00,1.074,1.787,1.166,2.023,1.399,0.555,1.027,0.954,�k�k��,7.2,��
2017/01/13,23:10,1.073,1.788,1.166,2.027,1.398,0.557,1.026,0.950,�k�k��,7.6,��
2017/01/13,23:20,1.076,1.789,1.165,2.024,1.400,0.558,1.026,0.952,�k�k��,7.1,��
2017/01/13,23:30,1.073,1.787,1.166,2.024,1.400,0.558,1.026,0.952,�k�k��,7.1,��
2017/01/13,23:40,1.073,1.787,1.164,2.024,1.396,0.558,1.027,0.953,�k�k��,7.4,��
2017/01/13,23:50,1.073,1.788,1.167,2.028,1.398,0.558,1.023,0.951,�k�k��,7.6,��
